Home > Time Zones > World Clock > Weather > U.S.A. > Waco > Past weeks

Flag for U.S.A. Weather past 2 weeks in Waco, Texas, U.S.A.

Now
77 °F

Clear.


Feels Like: 79 °F
Forecast: 74 / 94 °F
Wind: 9 mph from Southwest

Location: Waco Regional Airport

Current Time: Aug 29, 2015 at 5:25:54 AM

Latest Report: Aug 29, 2015 at 4:51 AM


Visibility: 10 mi

Pressure: 29.96 "Hg

Humidity: 64%

Dew point: 64 °F

Location of WacoLocation

Historic Weather in Waco — Graph

°F

Waco temperature yesterday

Maximum temperature yesterday: 96 °F (at 3:51 PM)
Minimum temperature yesterday: 69 °F (at 6:51 AM)
Average temperature yesterday: 83 °F

Past Weeks' High & Low Weather Summary

 TemperatureHumidityPressure
High100 °F (Aug 14, 4:51 PM)93% (Aug 20, 4:59 PM)30.13 "Hg (Aug 20, 4:59 PM)
Low67 °F (Aug 27, 6:51 AM)24% (Aug 15, 4:51 PM)29.69 "Hg (Aug 18, 6:51 PM)
Average84 °F58%29.95 "Hg
* Reported Aug 14 3:51 AM — Aug 29 3:51 AM, Waco, Weather by CustomWeather, © 2015

Note: Actual official high and low records may vary slightly from our data, if they occured in-between our weather recording intervals... More about our weather records

Advertising

Waco weather history for previous 24 hours

 ConditionsComfort  
Time TempWeatherWind HumidityBarometerVisibility
3:51 AM
Sat, Aug 29
77 °FClear.9 mph64%29.96 "Hg10 mi
1:51 AM79 °FClear.10 mph62%29.96 "Hg10 mi
12:51 AM80 °FClear.10 mph58%29.96 "Hg10 mi
11:51 PM
Fri, Aug 28
80 °FClear.6 mph54%29.96 "Hg10 mi
10:51 PM85 °FClear.12 mph46%29.95 "Hg10 mi
9:51 PM84 °FClear.8 mph49%29.93 "Hg10 mi
8:51 PM86 °FSunny.7 mph43%29.90 "Hg10 mi
7:51 PM86 °FSunny.6 mph40%29.89 "Hg10 mi
6:51 PM94 °FSunny.9 mph29%29.89 "Hg10 mi
5:51 PM95 °FSunny.10 mph29%29.90 "Hg10 mi
4:51 PM96 °FSunny.10 mph29%29.90 "Hg10 mi
3:51 PM96 °FSunny.8 mph29%29.91 "Hg10 mi
2:51 PM95 °FSunny.9 mph31%29.93 "Hg10 mi
1:51 PM94 °FSunny.10 mph31%29.96 "Hg10 mi
12:51 PM92 °FSunny.8 mph35%29.97 "Hg10 mi
11:51 AM88 °FSunny.6 mph43%29.99 "Hg10 mi
10:51 AM84 °FSunny.5 mph49%30.00 "Hg10 mi
9:51 AM80 °FSunny.7 mph56%29.99 "Hg10 mi
8:51 AM76 °FSunny.3 mph64%29.99 "Hg10 mi
7:51 AM71 °FClear.5 mph76%29.98 "Hg10 mi
6:51 AM69 °FClear.3 mph76%29.96 "Hg10 mi
5:51 AM71 °FClear.7 mph71%29.96 "Hg10 mi
Weather by CustomWeather, © 2015

See weather overviewHow to use our weather pages